Darstellungsparameter: Aktuell verwendete Einstellungen:
Skalierung der Graphiken ... ?
xyx+y,   Skalierungsfaktor:      Skalierung: Modus: x, Faktor: 1
Darstellungszeitraum ... ?
Vom - - bis: - -   Zeitraum: 23.06.2014 - 25.06.2014
Min/Max/Avg-Anzeige ... ?
Zeige MMA aktuell
Zeige MMA Monat
Zeige MMA alles
Zeige --A aktuell
Zeige --A Monat
Zeige --A alles
Keine MMA-Anzeige
MMA:
Keine MMA-Graphiken
MMA-Basis: 23.06.2014 - 25.06.2014
Quicknavigation für Darstellung... ?
Tage:      1T, 2T, 3T, 5T -1T -2T -3T -5T +1T +2T +3T +5T
Wochen: 1W, 2W, 3W -1W -2W -3W +1W +2W +3W
Monate: 1M, 3M, 6M -1M -3M -6M +1M +3M +6M
Jahre:    1J, 3J, 5J, 10J -1J -3J -5J -10J +1J +3J +5J +10J
Nutze für die Darstellung ... ?
Originaldaten oder Mittelwerte auf ...
Stundenbasis Tagesbasis Wochenbasis
Monatsbasis Jahresbasis      Datenbasis: Original-Daten
Darstellen als:
Statistik (Auto) Statistik J:M      Darstellung:
Zur Graphik,    zurück zur Übersicht aller Sensoren.
 
Tabellarische Datenbersicht: ?
 
Sensor: Nr:Datum:Temp:Abs-Feuchte:Windchill:Wind:
Aussen-T/F 1 23-06-2014 00:00:00 14.4 C 9.15 g/m*3 14.4 C 0 km/h
2 23-06-2014 00:05:00 14.3 C 9.21 g/m*3 14.3 C 0 km/h
3 23-06-2014 00:10:00 14.3 C 9.21 g/m*3 14.3 C 0 km/h
4 23-06-2014 00:15:00 14.2 C 9.16 g/m*3 14.2 C 1.6 km/h
5 23-06-2014 00:20:00 14.3 C 9.21 g/m*3 14.3 C 1.6 km/h
6 23-06-2014 00:25:00 14.3 C 9.21 g/m*3 14.3 C 0 km/h
7 23-06-2014 00:30:00 14.2 C 9.16 g/m*3 14.2 C 0 km/h
8 23-06-2014 00:35:00 14.1 C 9.1 g/m*3 14.1 C 0 km/h
9 23-06-2014 00:40:00 13.9 C 9.11 g/m*3 13.9 C 0 km/h
10 23-06-2014 00:45:00 13.8 C 9.17 g/m*3 13.8 C 0 km/h
11 23-06-2014 00:50:00 13.7 C 9.24 g/m*3 13.7 C 0 km/h
12 23-06-2014 00:55:00 13.6 C 9.18 g/m*3 13.6 C 1.6 km/h
13 23-06-2014 01:00:00 13.6 C 9.18 g/m*3 13.6 C 0 km/h
14 23-06-2014 01:05:00 13.6 C 9.06 g/m*3 13.6 C 0 km/h
15 23-06-2014 01:10:00 13.4 C 9.07 g/m*3 13.4 C 0 km/h
16 23-06-2014 01:15:00 13.3 C 9.01 g/m*3 13.3 C 0 km/h
17 23-06-2014 01:20:00 13.2 C 9.07 g/m*3 13.2 C 0 km/h
18 23-06-2014 01:25:00 13.2 C 9.07 g/m*3 13.2 C 0 km/h
19 23-06-2014 01:30:00 13.1 C 9.01 g/m*3 13.1 C 0 km/h
20 23-06-2014 01:35:00 13 C 9.07 g/m*3 13 C 0 km/h
21 23-06-2014 01:40:00 12.9 C 9.02 g/m*3 12.9 C 0 km/h
22 23-06-2014 01:45:00 12.8 C 8.96 g/m*3 12.8 C 0 km/h
23 23-06-2014 01:50:00 12.6 C 8.96 g/m*3 12.6 C 0 km/h
24 23-06-2014 01:55:00 12.4 C 8.96 g/m*3 12.4 C 0 km/h
25 23-06-2014 02:00:00 12.3 C 8.9 g/m*3 12.3 C 0 km/h
Sensor: Nr:Datum:Temp:Abs-Feuchte:Windchill:Wind:
Aussen-T/F 26 23-06-2014 02:05:00 12.2 C 8.96 g/m*3 12.2 C 0 km/h
27 23-06-2014 02:10:00 12.1 C 9.01 g/m*3 12.1 C 0 km/h
28 23-06-2014 02:15:00 11.9 C 8.9 g/m*3 11.9 C 0 km/h
29 23-06-2014 02:20:00 11.8 C 8.84 g/m*3 11.8 C 0 km/h
30 23-06-2014 02:25:00 11.8 C 8.95 g/m*3 11.8 C 0 km/h
31 23-06-2014 02:30:00 11.7 C 8.89 g/m*3 11.7 C 0 km/h
32 23-06-2014 02:35:00 11.6 C 8.83 g/m*3 11.6 C 0 km/h
33 23-06-2014 02:40:00 11.6 C 8.94 g/m*3 11.6 C 0 km/h
34 23-06-2014 02:45:00 11.6 C 8.83 g/m*3 11.6 C 0 km/h
35 23-06-2014 02:50:00 11.5 C 8.88 g/m*3 11.5 C 0 km/h
36 23-06-2014 02:55:00 11.4 C 8.83 g/m*3 11.4 C 0 km/h
37 23-06-2014 03:00:00 11.3 C 8.77 g/m*3 11.3 C 0 km/h
38 23-06-2014 03:05:00 11.2 C 8.72 g/m*3 11.2 C 0 km/h
39 23-06-2014 03:10:00 11.2 C 8.82 g/m*3 11.2 C 0 km/h
40 23-06-2014 03:15:00 11.1 C 8.76 g/m*3 11.1 C 0 km/h
41 23-06-2014 03:20:00 10.9 C 8.65 g/m*3 10.9 C 0 km/h
42 23-06-2014 03:25:00 10.9 C 8.75 g/m*3 10.9 C 0 km/h
43 23-06-2014 03:30:00 10.8 C 8.7 g/m*3 10.8 C 0 km/h
44 23-06-2014 03:35:00 10.8 C 8.7 g/m*3 10.8 C 0 km/h
45 23-06-2014 03:40:00 10.7 C 8.74 g/m*3 10.7 C 0 km/h
46 23-06-2014 03:45:00 10.7 C 8.74 g/m*3 10.7 C 0 km/h
47 23-06-2014 03:50:00 10.6 C 8.69 g/m*3 10.6 C 0 km/h
48 23-06-2014 03:55:00 10.6 C 8.69 g/m*3 10.6 C 0 km/h
49 23-06-2014 04:00:00 10.5 C 8.63 g/m*3 10.5 C 0 km/h
50 23-06-2014 04:05:00 10.4 C 8.67 g/m*3 10.4 C 0 km/h
Sensor: Nr:Datum:Temp:Abs-Feuchte:Windchill:Wind:
Aussen-T/F 51 23-06-2014 04:10:00 10.4 C 8.67 g/m*3 10.4 C 0 km/h
52 23-06-2014 04:15:00 10.3 C 8.62 g/m*3 10.3 C 0 km/h
53 23-06-2014 04:20:00 10.3 C 8.62 g/m*3 10.3 C 0 km/h
54 23-06-2014 04:25:00 10.2 C 8.56 g/m*3 10.2 C 0 km/h
55 23-06-2014 04:30:00 10.2 C 8.56 g/m*3 10.2 C 0 km/h
56 23-06-2014 04:35:00 10.1 C 8.51 g/m*3 10.1 C 0 km/h
57 23-06-2014 04:40:00 10.1 C 8.51 g/m*3 10.1 C 0 km/h
58 23-06-2014 04:45:00 10 C 8.55 g/m*3 10 C 0 km/h
59 23-06-2014 04:50:00 9.9 C 8.5 g/m*3 9.9 C 0 km/h
60 23-06-2014 04:55:00 9.9 C 8.5 g/m*3 9.9 C 0 km/h
61 23-06-2014 05:00:00 9.8 C 8.44 g/m*3 9.8 C 0 km/h
62 23-06-2014 05:05:00 9.8 C 8.44 g/m*3 9.8 C 0 km/h
63 23-06-2014 05:10:00 9.8 C 8.44 g/m*3 9.8 C 0 km/h
64 23-06-2014 05:15:00 9.8 C 8.54 g/m*3 9.8 C 0 km/h
65 23-06-2014 05:20:00 9.8 C 8.54 g/m*3 9.8 C 0 km/h
66 23-06-2014 05:25:00 9.8 C 8.54 g/m*3 9.8 C 0 km/h
67 23-06-2014 05:30:00 9.8 C 8.54 g/m*3 9.8 C 1.6 km/h
68 23-06-2014 05:35:00 9.8 C 8.54 g/m*3 9.8 C 0 km/h
69 23-06-2014 05:40:00 9.8 C 8.54 g/m*3 9.8 C 0 km/h
70 23-06-2014 05:45:00 9.8 C 8.54 g/m*3 9.8 C 0 km/h
71 23-06-2014 05:50:00 9.9 C 8.59 g/m*3 9.9 C 0 km/h
72 23-06-2014 05:55:00 9.9 C 8.59 g/m*3 9.9 C 0 km/h
73 23-06-2014 06:00:00 9.9 C 8.59 g/m*3 9.9 C 0 km/h
74 23-06-2014 06:05:00 9.9 C 8.59 g/m*3 9.9 C 0 km/h
75 23-06-2014 06:10:00 9.9 C 8.59 g/m*3 9.9 C 0 km/h
Sensor: Nr:Datum:Temp:Abs-Feuchte:Windchill:Wind:
Aussen-T/F 76 23-06-2014 06:15:00 10 C 8.55 g/m*3 10 C 0 km/h
77 23-06-2014 06:20:00 10.1 C 8.61 g/m*3 10.1 C 0 km/h
78 23-06-2014 06:25:00 10 C 8.55 g/m*3 10 C 0 km/h
79 23-06-2014 06:30:00 10 C 8.55 g/m*3 10 C 0 km/h
80 23-06-2014 06:35:00 9.9 C 8.5 g/m*3 9.9 C 0 km/h
81 23-06-2014 06:40:00 9.9 C 8.59 g/m*3 9.9 C 0 km/h
82 23-06-2014 06:45:00 9.9 C 8.5 g/m*3 9.9 C 0 km/h
83 23-06-2014 06:50:00 9.9 C 8.59 g/m*3 9.9 C 0 km/h
84 23-06-2014 06:55:00 9.9 C 8.59 g/m*3 9.9 C 0 km/h
85 23-06-2014 07:00:00 9.9 C 8.59 g/m*3 9.9 C 0 km/h
86 23-06-2014 07:05:00 9.9 C 8.59 g/m*3 9.9 C 0 km/h
87 23-06-2014 07:10:00 10 C 8.64 g/m*3 10 C 0 km/h
88 23-06-2014 07:15:00 10.1 C 8.7 g/m*3 10.1 C 0 km/h
89 23-06-2014 07:20:00 10.2 C 8.76 g/m*3 10.2 C 0 km/h
90 23-06-2014 07:25:00 10.3 C 8.81 g/m*3 10.3 C 0 km/h
91 23-06-2014 07:30:00 10.6 C 9.08 g/m*3 10.6 C 0 km/h
92 23-06-2014 07:35:00 10.7 C 9.13 g/m*3 10.7 C 0 km/h
93 23-06-2014 07:40:00 10.9 C 9.15 g/m*3 10.9 C 0 km/h
94 23-06-2014 07:45:00 11.1 C 9.27 g/m*3 11.1 C 0 km/h
95 23-06-2014 07:50:00 11.2 C 9.33 g/m*3 11.2 C 0 km/h
96 23-06-2014 07:55:00 11.3 C 9.28 g/m*3 11.3 C 0 km/h
97 23-06-2014 08:00:00 11.6 C 9.46 g/m*3 11.6 C 0 km/h
98 23-06-2014 08:05:00 11.8 C 9.47 g/m*3 11.8 C 0 km/h
99 23-06-2014 08:10:00 12.1 C 9.54 g/m*3 12.1 C 0 km/h
100 23-06-2014 08:15:00 12.3 C 9.45 g/m*3 12.3 C 0 km/h
Sensor: Nr:Datum:Temp:Abs-Feuchte:Windchill:Wind:
Aussen-T/F 101 23-06-2014 08:20:00 12.8 C 9.63 g/m*3 12.8 C 0 km/h
102 23-06-2014 08:25:00 13.2 C 9.76 g/m*3 13.2 C 0 km/h
103 23-06-2014 08:30:00 13.5 C 9.71 g/m*3 13.5 C 1.6 km/h
104 23-06-2014 08:35:00 13.7 C 9.71 g/m*3 13.7 C 1.6 km/h
105 23-06-2014 08:40:00 13.9 C 9.59 g/m*3 13.9 C 0 km/h
106 23-06-2014 08:45:00 14.1 C 9.83 g/m*3 14.1 C 0 km/h
107 23-06-2014 08:50:00 14.4 C 9.89 g/m*3 14.4 C 3.2 km/h
108 23-06-2014 08:55:00 14.7 C 9.95 g/m*3 14.7 C 4.8 km/h
109 23-06-2014 09:00:00 15 C 9.87 g/m*3 15 C 4.8 km/h
110 23-06-2014 09:05:00 15.2 C 9.86 g/m*3 15.2 C 1.6 km/h
111 23-06-2014 09:10:00 15.2 C 9.86 g/m*3 15.2 C 3.2 km/h
112 23-06-2014 09:15:00 15.3 C 9.92 g/m*3 15.3 C 6.4 km/h
113 23-06-2014 09:20:00 15.2 C 9.86 g/m*3 15.2 C 6.4 km/h
114 23-06-2014 09:25:00 15.2 C 9.73 g/m*3 15.2 C 1.6 km/h
115 23-06-2014 09:30:00 15.2 C 9.73 g/m*3 15.2 C 4.8 km/h
116 23-06-2014 09:35:00 15.3 C 9.79 g/m*3 15.3 C 4.8 km/h
117 23-06-2014 09:40:00 15.5 C 9.91 g/m*3 15.5 C 3.2 km/h
118 23-06-2014 09:45:00 15.8 C 9.69 g/m*3 15.8 C 4.8 km/h
119 23-06-2014 09:50:00 15.9 C 9.62 g/m*3 15.9 C 4.8 km/h
120 23-06-2014 09:55:00 16.2 C 9.65 g/m*3 16.2 C 4.8 km/h
121 23-06-2014 10:00:00 16.5 C 9.97 g/m*3 16.5 C 6.4 km/h
122 23-06-2014 10:05:00 17.1 C 9.9 g/m*3 17.1 C 6.4 km/h
123 23-06-2014 10:10:00 17.4 C 9.63 g/m*3 17.4 C 6.4 km/h
124 23-06-2014 10:15:00 17.6 C 9.75 g/m*3 17.6 C 8.1 km/h
125 23-06-2014 10:20:00 17.9 C 9.77 g/m*3 17.9 C 8.1 km/h
Sensor: Nr:Datum:Temp:Abs-Feuchte:Windchill:Wind:
Aussen-T/F 126 23-06-2014 10:25:00 17.9 C 9.62 g/m*3 17.9 C 8.1 km/h
127 23-06-2014 10:30:00 17.7 C 9.35 g/m*3 17.7 C 8.1 km/h
128 23-06-2014 10:35:00 17.8 C 9.56 g/m*3 17.8 C 6.4 km/h
129 23-06-2014 10:40:00 17.9 C 9.47 g/m*3 17.9 C 8.1 km/h
130 23-06-2014 10:45:00 18.2 C 9.64 g/m*3 18.2 C 6.4 km/h
131 23-06-2014 10:50:00 18.5 C 9.49 g/m*3 18.5 C 8.1 km/h
132 23-06-2014 10:55:00 18.4 C 9.12 g/m*3 18.4 C 8.1 km/h
133 23-06-2014 11:00:00 18.3 C 9.54 g/m*3 18.3 C 9.7 km/h
134 23-06-2014 11:05:00 18.5 C 9.33 g/m*3 18.5 C 9.7 km/h
135 23-06-2014 11:10:00 18.6 C 9.39 g/m*3 18.6 C 8.1 km/h
136 23-06-2014 11:15:00 18.7 C 9.61 g/m*3 18.7 C 9.7 km/h
137 23-06-2014 11:20:00 18.9 C 9.4 g/m*3 18.9 C 6.4 km/h
138 23-06-2014 11:25:00 19.1 C 9.67 g/m*3 19.1 C 8.1 km/h
139 23-06-2014 11:30:00 19.3 C 9.62 g/m*3 19.3 C 4.8 km/h
140 23-06-2014 11:35:00 19.6 C 9.45 g/m*3 19.6 C 8.1 km/h
141 23-06-2014 11:40:00 19.6 C 9.28 g/m*3 19.6 C 8.1 km/h
142 23-06-2014 11:45:00 19.8 C 9.22 g/m*3 19.8 C 11.3 km/h
143 23-06-2014 11:50:00 19.9 C 9.11 g/m*3 19.9 C 9.7 km/h
144 23-06-2014 11:55:00 19.8 C 9.39 g/m*3 19.8 C 8.1 km/h
145 23-06-2014 12:00:00 19.8 C 9.39 g/m*3 19.8 C 8.1 km/h
146 23-06-2014 12:05:00 19.8 C 9.39 g/m*3 19.8 C 11.3 km/h
147 23-06-2014 12:10:00 19.8 C 9.22 g/m*3 19.8 C 12.9 km/h
148 23-06-2014 12:15:00 20.2 C 9.27 g/m*3 20.2 C 12.9 km/h
149 23-06-2014 12:20:00 20.3 C 8.97 g/m*3 20.3 C 8.1 km/h
150 23-06-2014 12:25:00 20.5 C 9.43 g/m*3 20.5 C 8.1 km/h
Sensor: Nr:Datum:Temp:Abs-Feuchte:Windchill:Wind:
Aussen-T/F 151 23-06-2014 12:30:00 20.6 C 9.31 g/m*3 20.6 C 9.7 km/h
152 23-06-2014 12:35:00 20.7 C 9.36 g/m*3 20.7 C 6.4 km/h
153 23-06-2014 12:40:00 20.6 C 9.13 g/m*3 20.6 C 9.7 km/h
154 23-06-2014 12:45:00 20.7 C 9.18 g/m*3 20.7 C 11.3 km/h
155 23-06-2014 12:50:00 21 C 8.98 g/m*3 21 C 11.3 km/h
156 23-06-2014 12:55:00 20.9 C 9.29 g/m*3 20.9 C 12.9 km/h
157 23-06-2014 13:00:00 21 C 9.53 g/m*3 21 C 8.1 km/h
158 23-06-2014 13:05:00 20.9 C 9.47 g/m*3 20.9 C 6.4 km/h
159 23-06-2014 13:10:00 20.8 C 9.23 g/m*3 20.8 C 6.4 km/h
160 23-06-2014 13:15:00 21.1 C 8.84 g/m*3 21.1 C 12.9 km/h
161 23-06-2014 13:20:00 21.3 C 8.95 g/m*3 21.3 C 12.9 km/h
162 23-06-2014 13:25:00 21.3 C 8.76 g/m*3 21.3 C 9.7 km/h
163 23-06-2014 13:30:00 21.7 C 9.92 g/m*3 21.7 C 9.7 km/h
164 23-06-2014 13:35:00 22 C 9.32 g/m*3 22 C 14.5 km/h
165 23-06-2014 13:40:00 21.8 C 9.21 g/m*3 21.8 C 11.3 km/h
166 23-06-2014 13:45:00 21.7 C 9.16 g/m*3 21.7 C 6.4 km/h
167 23-06-2014 13:50:00 21.9 C 9.07 g/m*3 21.9 C 11.3 km/h
168 23-06-2014 13:55:00 21.9 C 9.07 g/m*3 21.9 C 8.1 km/h
169 23-06-2014 14:00:00 21.9 C 9.26 g/m*3 21.9 C 9.7 km/h
170 23-06-2014 14:05:00 21.9 C 8.88 g/m*3 21.9 C 9.7 km/h
171 23-06-2014 14:10:00 21.9 C 8.88 g/m*3 21.9 C 8.1 km/h
172 23-06-2014 14:15:00 21.9 C 9.46 g/m*3 21.9 C 11.3 km/h
173 23-06-2014 14:20:00 22.3 C 9.48 g/m*3 22.3 C 9.7 km/h
174 23-06-2014 14:25:00 22.4 C 9.33 g/m*3 22.4 C 14.5 km/h
175 23-06-2014 14:30:00 22.6 C 9.44 g/m*3 22.6 C 11.3 km/h
Sensor: Nr:Datum:Temp:Abs-Feuchte:Windchill:Wind:
Aussen-T/F 176 23-06-2014 14:35:00 22.4 C 8.74 g/m*3 22.4 C 4.8 km/h
177 23-06-2014 14:40:00 22.3 C 9.28 g/m*3 22.3 C 8.1 km/h
178 23-06-2014 14:45:00 22.7 C 8.89 g/m*3 22.7 C 9.7 km/h
179 23-06-2014 14:50:00 22.9 C 8.99 g/m*3 22.9 C 9.7 km/h
180 23-06-2014 14:55:00 23.1 C 9.1 g/m*3 23.1 C 4.8 km/h
181 23-06-2014 15:00:00 23 C 8.63 g/m*3 23 C 8.1 km/h
182 23-06-2014 15:05:00 23 C 8.84 g/m*3 23 C 4.8 km/h
183 23-06-2014 15:10:00 23.1 C 8.89 g/m*3 23.1 C 3.2 km/h
184 23-06-2014 15:15:00 23.3 C 9.41 g/m*3 23.3 C 11.3 km/h
185 23-06-2014 15:20:00 23.3 C 9.41 g/m*3 23.3 C 8.1 km/h
186 23-06-2014 15:25:00 23.8 C 8.6 g/m*3 23.8 C 8.1 km/h
187 23-06-2014 15:30:00 23.9 C 8.22 g/m*3 23.9 C 8.1 km/h
188 23-06-2014 15:35:00 24.1 C 9.19 g/m*3 24.1 C 9.7 km/h
189 23-06-2014 15:40:00 24.3 C 8.63 g/m*3 24.3 C 11.3 km/h
190 23-06-2014 15:45:00 24.3 C 8.63 g/m*3 24.3 C 6.4 km/h
191 23-06-2014 15:50:00 24.2 C 8.8 g/m*3 24.2 C 11.3 km/h
192 23-06-2014 15:55:00 24.1 C 9.19 g/m*3 24.1 C 9.7 km/h
193 23-06-2014 16:00:00 23.9 C 8.65 g/m*3 23.9 C 11.3 km/h
194 23-06-2014 16:05:00 24.1 C 9.41 g/m*3 24.1 C 9.7 km/h
195 23-06-2014 16:10:00 24.3 C 8.63 g/m*3 24.3 C 9.7 km/h
196 23-06-2014 16:15:00 24.2 C 8.8 g/m*3 24.2 C 8.1 km/h
197 23-06-2014 16:20:00 24.1 C 8.75 g/m*3 24.1 C 8.1 km/h
198 23-06-2014 16:25:00 23.9 C 8.65 g/m*3 23.9 C 11.3 km/h
199 23-06-2014 16:30:00 23.9 C 8.65 g/m*3 23.9 C 11.3 km/h
200 23-06-2014 16:35:00 23.9 C 8.44 g/m*3 23.9 C 6.4 km/h
Sensor: Nr:Datum:Temp:Abs-Feuchte:Windchill:Wind:
Aussen-T/F 201 23-06-2014 16:40:00 24.1 C 8.97 g/m*3 24.1 C 14.5 km/h
202 23-06-2014 16:45:00 24.7 C 8.83 g/m*3 24.7 C 11.3 km/h
203 23-06-2014 16:50:00 24.6 C 8.55 g/m*3 24.6 C 14.5 km/h
204 23-06-2014 16:55:00 24.5 C 8.5 g/m*3 24.5 C 8.1 km/h
205 23-06-2014 17:00:00 24.4 C 8.9 g/m*3 24.4 C 8.1 km/h
206 23-06-2014 17:05:00 24.3 C 9.07 g/m*3 24.3 C 11.3 km/h
207 23-06-2014 17:10:00 24.6 C 9 g/m*3 24.6 C 8.1 km/h
208 23-06-2014 17:15:00 24.7 C 9.05 g/m*3 24.7 C 4.8 km/h
209 23-06-2014 17:20:00 24.3 C 8.85 g/m*3 24.3 C 9.7 km/h
210 23-06-2014 17:25:00 23.8 C 9.03 g/m*3 23.8 C 8.1 km/h
211 23-06-2014 17:30:00 23.8 C 8.82 g/m*3 23.8 C 12.9 km/h
212 23-06-2014 17:35:00 23.8 C 8.82 g/m*3 23.8 C 11.3 km/h
213 23-06-2014 17:40:00 24 C 9.14 g/m*3 24 C 16.1 km/h
214 23-06-2014 17:45:00 24.1 C 8.97 g/m*3 24.1 C 6.4 km/h
215 23-06-2014 17:50:00 24.1 C 8.97 g/m*3 24.1 C 9.7 km/h
216 23-06-2014 17:55:00 24.2 C 8.8 g/m*3 24.2 C 11.3 km/h
217 23-06-2014 18:00:00 23.8 C 8.82 g/m*3 23.8 C 9.7 km/h
218 23-06-2014 18:05:00 23.8 C 8.82 g/m*3 23.8 C 8.1 km/h
219 23-06-2014 18:10:00 23.6 C 8.72 g/m*3 23.6 C 9.7 km/h
220 23-06-2014 18:15:00 23.3 C 8.78 g/m*3 23.3 C 8.1 km/h
221 23-06-2014 18:20:00 23.3 C 8.78 g/m*3 23.3 C 9.7 km/h
222 23-06-2014 18:25:00 23.2 C 8.73 g/m*3 23.2 C 9.7 km/h
223 23-06-2014 18:30:00 23.2 C 8.73 g/m*3 23.2 C 9.7 km/h
224 23-06-2014 18:35:00 23.3 C 8.99 g/m*3 23.3 C 4.8 km/h
225 23-06-2014 18:40:00 23.3 C 8.99 g/m*3 23.3 C 9.7 km/h
Sensor: Nr:Datum:Temp:Abs-Feuchte:Windchill:Wind:
Aussen-T/F 226 23-06-2014 18:45:00 23.4 C 9.04 g/m*3 23.4 C 11.3 km/h
227 23-06-2014 18:50:00 23.4 C 8.83 g/m*3 23.4 C 11.3 km/h
228 23-06-2014 18:55:00 23.6 C 8.93 g/m*3 23.6 C 11.3 km/h
229 23-06-2014 19:00:00 23.6 C 8.72 g/m*3 23.6 C 12.9 km/h
230 23-06-2014 19:05:00 23.3 C 8.78 g/m*3 23.3 C 9.7 km/h
231 23-06-2014 19:10:00 22.8 C 8.74 g/m*3 22.8 C 11.3 km/h
232 23-06-2014 19:15:00 22.6 C 8.84 g/m*3 22.6 C 11.3 km/h
233 23-06-2014 19:20:00 22.6 C 8.84 g/m*3 22.6 C 12.9 km/h
234 23-06-2014 19:25:00 22.4 C 8.94 g/m*3 22.4 C 9.7 km/h
235 23-06-2014 19:30:00 22.3 C 8.89 g/m*3 22.3 C 9.7 km/h
236 23-06-2014 19:35:00 22.3 C 8.89 g/m*3 22.3 C 9.7 km/h
237 23-06-2014 19:40:00 22.1 C 8.78 g/m*3 22.1 C 11.3 km/h
238 23-06-2014 19:45:00 21.9 C 8.88 g/m*3 21.9 C 9.7 km/h
239 23-06-2014 19:50:00 21.8 C 8.63 g/m*3 21.8 C 9.7 km/h
240 23-06-2014 19:55:00 21.6 C 8.91 g/m*3 21.6 C 4.8 km/h
241 23-06-2014 20:00:00 21.6 C 8.91 g/m*3 21.6 C 9.7 km/h
242 23-06-2014 20:05:00 21.5 C 8.86 g/m*3 21.5 C 6.4 km/h
243 23-06-2014 20:10:00 21.5 C 8.86 g/m*3 21.5 C 6.4 km/h
244 23-06-2014 20:15:00 21.4 C 8.81 g/m*3 21.4 C 6.4 km/h
245 23-06-2014 20:20:00 21.5 C 9.05 g/m*3 21.5 C 9.7 km/h
246 23-06-2014 20:25:00 21.5 C 8.86 g/m*3 21.5 C 8.1 km/h
247 23-06-2014 20:30:00 21.4 C 8.81 g/m*3 21.4 C 8.1 km/h
248 23-06-2014 20:35:00 21.3 C 8.95 g/m*3 21.3 C 8.1 km/h
249 23-06-2014 20:40:00 21.1 C 9.03 g/m*3 21.1 C 9.7 km/h
250 23-06-2014 20:45:00 20.9 C 8.74 g/m*3 20.9 C 11.3 km/h
Sensor: Nr:Datum:Temp:Abs-Feuchte:Windchill:Wind:
Aussen-T/F 251 23-06-2014 20:50:00 20.7 C 8.82 g/m*3 20.7 C 8.1 km/h
252 23-06-2014 20:55:00 20.7 C 8.82 g/m*3 20.7 C 8.1 km/h
253 23-06-2014 21:00:00 20.6 C 8.95 g/m*3 20.6 C 11.3 km/h
254 23-06-2014 21:05:00 20.4 C 9.02 g/m*3 20.4 C 8.1 km/h
255 23-06-2014 21:10:00 20.4 C 9.02 g/m*3 20.4 C 4.8 km/h
256 23-06-2014 21:15:00 20.3 C 8.97 g/m*3 20.3 C 4.8 km/h
257 23-06-2014 21:20:00 20.3 C 8.97 g/m*3 20.3 C 3.2 km/h
258 23-06-2014 21:25:00 20.1 C 9.04 g/m*3 20.1 C 9.7 km/h
259 23-06-2014 21:30:00 20 C 8.99 g/m*3 20 C 3.2 km/h
260 23-06-2014 21:35:00 19.9 C 9.11 g/m*3 19.9 C 6.4 km/h
261 23-06-2014 21:40:00 19.7 C 9.17 g/m*3 19.7 C 3.2 km/h
262 23-06-2014 21:45:00 19.6 C 9.12 g/m*3 19.6 C 1.6 km/h
263 23-06-2014 21:50:00 19.3 C 9.29 g/m*3 19.3 C 0 km/h
264 23-06-2014 21:55:00 18.9 C 9.4 g/m*3 18.9 C 0 km/h
265 23-06-2014 22:00:00 18.4 C 9.44 g/m*3 18.4 C 0 km/h
266 23-06-2014 22:05:00 17.8 C 9.41 g/m*3 17.8 C 0 km/h
267 23-06-2014 22:10:00 17.4 C 9.48 g/m*3 17.4 C 0 km/h
268 23-06-2014 22:15:00 17.1 C 9.32 g/m*3 17.1 C 0 km/h
269 23-06-2014 22:20:00 16.8 C 9.29 g/m*3 16.8 C 0 km/h
270 23-06-2014 22:25:00 16.7 C 9.38 g/m*3 16.7 C 1.6 km/h
271 23-06-2014 22:30:00 16.7 C 9.38 g/m*3 16.7 C 4.8 km/h
272 23-06-2014 22:35:00 16.6 C 9.32 g/m*3 16.6 C 0 km/h
273 23-06-2014 22:40:00 16.3 C 9.3 g/m*3 16.3 C 0 km/h
274 23-06-2014 22:45:00 16.2 C 9.38 g/m*3 16.2 C 0 km/h
275 23-06-2014 22:50:00 16.1 C 9.32 g/m*3 16.1 C 0 km/h
Sensor: Nr:Datum:Temp:Abs-Feuchte:Windchill:Wind:
Aussen-T/F 276 23-06-2014 22:55:00 15.9 C 9.21 g/m*3 15.9 C 0 km/h
277 23-06-2014 23:00:00 15.9 C 9.34 g/m*3 15.9 C 0 km/h
278 23-06-2014 23:05:00 15.9 C 9.34 g/m*3 15.9 C 0 km/h
279 23-06-2014 23:10:00 15.8 C 9.29 g/m*3 15.8 C 0 km/h
280 23-06-2014 23:15:00 15.7 C 9.37 g/m*3 15.7 C 0 km/h
281 23-06-2014 23:20:00 15.6 C 9.31 g/m*3 15.6 C 0 km/h
282 23-06-2014 23:25:00 15.6 C 9.31 g/m*3 15.6 C 0 km/h
283 23-06-2014 23:30:00 15.4 C 9.33 g/m*3 15.4 C 0 km/h
284 23-06-2014 23:35:00 15.4 C 9.33 g/m*3 15.4 C 0 km/h
285 23-06-2014 23:40:00 15.3 C 9.27 g/m*3 15.3 C 0 km/h
286 23-06-2014 23:45:00 15.2 C 9.35 g/m*3 15.2 C 0 km/h
287 23-06-2014 23:50:00 15.1 C 9.29 g/m*3 15.1 C 0 km/h
288 23-06-2014 23:55:00 15.1 C 9.29 g/m*3 15.1 C 0 km/h
289 24-06-2014 00:00:00 15.1 C 9.29 g/m*3 15.1 C 0 km/h
290 24-06-2014 00:05:00 15 C 9.36 g/m*3 15 C 0 km/h
291 24-06-2014 00:10:00 14.9 C 9.3 g/m*3 14.9 C 0 km/h
292 24-06-2014 00:15:00 14.9 C 9.3 g/m*3 14.9 C 0 km/h
293 24-06-2014 00:20:00 14.8 C 9.37 g/m*3 14.8 C 0 km/h
294 24-06-2014 00:25:00 14.8 C 9.37 g/m*3 14.8 C 0 km/h
295 24-06-2014 00:30:00 14.7 C 9.44 g/m*3 14.7 C 0 km/h
296 24-06-2014 00:35:00 14.6 C 9.39 g/m*3 14.6 C 0 km/h
297 24-06-2014 00:40:00 14.5 C 9.33 g/m*3 14.5 C 0 km/h
298 24-06-2014 00:45:00 14.4 C 9.27 g/m*3 14.4 C 0 km/h
299 24-06-2014 00:50:00 14.3 C 9.34 g/m*3 14.3 C 0 km/h
300 24-06-2014 00:55:00 14.3 C 9.34 g/m*3 14.3 C 0 km/h
Sensor: Nr:Datum:Temp:Abs-Feuchte:Windchill:Wind:
Aussen-T/F 301 24-06-2014 01:00:00 14.2 C 9.28 g/m*3 14.2 C 0 km/h
302 24-06-2014 01:05:00 14.1 C 9.34 g/m*3 14.1 C 0 km/h
303 24-06-2014 01:10:00 13.9 C 9.23 g/m*3 13.9 C 0 km/h
304 24-06-2014 01:15:00 13.8 C 9.17 g/m*3 13.8 C 0 km/h
305 24-06-2014 01:20:00 13.7 C 9.24 g/m*3 13.7 C 0 km/h
306 24-06-2014 01:25:00 13.6 C 9.18 g/m*3 13.6 C 0 km/h
307 24-06-2014 01:30:00 13.5 C 9.24 g/m*3 13.5 C 0 km/h
308 24-06-2014 01:35:00 13.4 C 9.18 g/m*3 13.4 C 0 km/h
309 24-06-2014 01:40:00 13.3 C 9.24 g/m*3 13.3 C 0 km/h
310 24-06-2014 01:45:00 13.3 C 9.24 g/m*3 13.3 C 0 km/h
311 24-06-2014 01:50:00 13.2 C 9.3 g/m*3 13.2 C 0 km/h
312 24-06-2014 01:55:00 13.1 C 9.24 g/m*3 13.1 C 0 km/h
313 24-06-2014 02:00:00 13 C 9.19 g/m*3 13 C 0 km/h
314 24-06-2014 02:05:00 12.8 C 9.07 g/m*3 12.8 C 0 km/h
315 24-06-2014 02:10:00 12.8 C 9.18 g/m*3 12.8 C 0 km/h
316 24-06-2014 02:15:00 12.7 C 9.13 g/m*3 12.7 C 0 km/h
317 24-06-2014 02:20:00 12.6 C 9.07 g/m*3 12.6 C 0 km/h
318 24-06-2014 02:25:00 12.6 C 9.18 g/m*3 12.6 C 0 km/h
319 24-06-2014 02:30:00 12.5 C 9.13 g/m*3 12.5 C 0 km/h
320 24-06-2014 02:35:00 12.4 C 9.07 g/m*3 12.4 C 0 km/h
321 24-06-2014 02:40:00 12.3 C 9.01 g/m*3 12.3 C 0 km/h
322 24-06-2014 02:45:00 12.2 C 9.06 g/m*3 12.2 C 0 km/h
323 24-06-2014 02:50:00 12.1 C 9.01 g/m*3 12.1 C 0 km/h
324 24-06-2014 02:55:00 12 C 8.95 g/m*3 12 C 0 km/h
325 24-06-2014 03:00:00 11.9 C 9 g/m*3 11.9 C 0 km/h
Sensor: Nr:Datum:Temp:Abs-Feuchte:Windchill:Wind:
Aussen-T/F 326 24-06-2014 03:05:00 11.8 C 8.95 g/m*3 11.8 C 0 km/h
327 24-06-2014 03:10:00 11.8 C 8.95 g/m*3 11.8 C 0 km/h
328 24-06-2014 03:15:00 11.7 C 8.99 g/m*3 11.7 C 0 km/h
329 24-06-2014 03:20:00 11.7 C 8.99 g/m*3 11.7 C 0 km/h
330 24-06-2014 03:25:00 11.6 C 8.94 g/m*3 11.6 C 0 km/h
331 24-06-2014 03:30:00 11.6 C 8.94 g/m*3 11.6 C 0 km/h
332 24-06-2014 03:35:00 11.5 C 8.99 g/m*3 11.5 C 0 km/h
333 24-06-2014 03:40:00 11.4 C 8.93 g/m*3 11.4 C 0 km/h
334 24-06-2014 03:45:00 11.4 C 8.93 g/m*3 11.4 C 0 km/h
335 24-06-2014 03:50:00 11.3 C 8.87 g/m*3 11.3 C 0 km/h
336 24-06-2014 03:55:00 11.2 C 8.82 g/m*3 11.2 C 0 km/h
337 24-06-2014 04:00:00 11.2 C 8.92 g/m*3 11.2 C 0 km/h
338 24-06-2014 04:05:00 11.1 C 8.86 g/m*3 11.1 C 0 km/h
339 24-06-2014 04:10:00 11 C 8.81 g/m*3 11 C 0 km/h
340 24-06-2014 04:15:00 10.9 C 8.85 g/m*3 10.9 C 0 km/h
341 24-06-2014 04:20:00 10.9 C 8.85 g/m*3 10.9 C 0 km/h
342 24-06-2014 04:25:00 10.8 C 8.8 g/m*3 10.8 C 0 km/h
343 24-06-2014 04:30:00 10.8 C 8.8 g/m*3 10.8 C 0 km/h
344 24-06-2014 04:35:00 10.7 C 8.74 g/m*3 10.7 C 0 km/h
345 24-06-2014 04:40:00 10.7 C 8.84 g/m*3 10.7 C 0 km/h
346 24-06-2014 04:45:00 10.7 C 8.84 g/m*3 10.7 C 0 km/h
347 24-06-2014 04:50:00 10.6 C 8.78 g/m*3 10.6 C 0 km/h
348 24-06-2014 04:55:00 10.6 C 8.78 g/m*3 10.6 C 0 km/h
349 24-06-2014 05:00:00 10.5 C 8.83 g/m*3 10.5 C 0 km/h
350 24-06-2014 05:05:00 10.4 C 8.77 g/m*3 10.4 C 0 km/h
Sensor: Nr:Datum:Temp:Abs-Feuchte:Windchill:Wind:
Aussen-T/F 351 24-06-2014 05:10:00 10.4 C 8.77 g/m*3 10.4 C 0 km/h
352 24-06-2014 05:15:00 10.4 C 8.77 g/m*3 10.4 C 0 km/h
353 24-06-2014 05:20:00 10.4 C 8.77 g/m*3 10.4 C 0 km/h
354 24-06-2014 05:25:00 10.3 C 8.71 g/m*3 10.3 C 0 km/h
355 24-06-2014 05:30:00 10.3 C 8.71 g/m*3 10.3 C 0 km/h
356 24-06-2014 05:35:00 10.3 C 8.81 g/m*3 10.3 C 0 km/h
357 24-06-2014 05:40:00 10.3 C 8.81 g/m*3 10.3 C 0 km/h
358 24-06-2014 05:45:00 10.3 C 8.81 g/m*3 10.3 C 0 km/h
359 24-06-2014 05:50:00 10.3 C 8.81 g/m*3 10.3 C 0 km/h
360 24-06-2014 05:55:00 10.3 C 8.81 g/m*3 10.3 C 0 km/h
361 24-06-2014 06:00:00 10.2 C 8.76 g/m*3 10.2 C 0 km/h
362 24-06-2014 06:05:00 10.3 C 8.81 g/m*3 10.3 C 0 km/h
363 24-06-2014 06:10:00 10.2 C 8.76 g/m*3 10.2 C 0 km/h
364 24-06-2014 06:15:00 10.2 C 8.76 g/m*3 10.2 C 0 km/h
365 24-06-2014 06:20:00 10.3 C 8.81 g/m*3 10.3 C 0 km/h
366 24-06-2014 06:25:00 10.2 C 8.76 g/m*3 10.2 C 0 km/h
367 24-06-2014 06:30:00 10.3 C 8.81 g/m*3 10.3 C 0 km/h
368 24-06-2014 06:35:00 10.3 C 8.91 g/m*3 10.3 C 0 km/h
369 24-06-2014 06:40:00 10.3 C 8.91 g/m*3 10.3 C 0 km/h
370 24-06-2014 06:45:00 10.4 C 8.96 g/m*3 10.4 C 0 km/h
371 24-06-2014 06:50:00 10.4 C 8.87 g/m*3 10.4 C 0 km/h
372 24-06-2014 06:55:00 10.6 C 8.98 g/m*3 10.6 C 0 km/h
373 24-06-2014 07:00:00 10.6 C 9.08 g/m*3 10.6 C 3.2 km/h
374 24-06-2014 07:05:00 10.8 C 9.19 g/m*3 10.8 C 3.2 km/h
375 24-06-2014 07:10:00 10.9 C 9.15 g/m*3 10.9 C 0 km/h
Sensor: Nr:Datum:Temp:Abs-Feuchte:Windchill:Wind:
Aussen-T/F 376 24-06-2014 07:15:00 11.1 C 9.27 g/m*3 11.1 C 0 km/h
377 24-06-2014 07:20:00 11.1 C 9.17 g/m*3 11.1 C 0 km/h
378 24-06-2014 07:25:00 11.2 C 9.22 g/m*3 11.2 C 0 km/h
379 24-06-2014 07:30:00 11.2 C 9.22 g/m*3 11.2 C 0 km/h
380 24-06-2014 07:35:00 11.3 C 9.28 g/m*3 11.3 C 1.6 km/h
381 24-06-2014 07:40:00 11.5 C 9.4 g/m*3 11.5 C 0 km/h
382 24-06-2014 07:45:00 11.6 C 9.35 g/m*3 11.6 C 1.6 km/h
383 24-06-2014 07:50:00 11.8 C 9.47 g/m*3 11.8 C 0 km/h
384 24-06-2014 07:55:00 12 C 9.59 g/m*3 12 C 0 km/h
385 24-06-2014 08:00:00 12.2 C 9.6 g/m*3 12.2 C 0 km/h
386 24-06-2014 08:05:00 12.5 C 9.68 g/m*3 12.5 C 0 km/h
387 24-06-2014 08:10:00 12.8 C 9.74 g/m*3 12.8 C 0 km/h
388 24-06-2014 08:15:00 13.1 C 9.93 g/m*3 13.1 C 0 km/h
389 24-06-2014 08:20:00 13.4 C 10 g/m*3 13.4 C 0 km/h
390 24-06-2014 08:25:00 13.8 C 10.01 g/m*3 13.8 C 0 km/h
391 24-06-2014 08:30:00 14.1 C 10.07 g/m*3 14.1 C 1.6 km/h
392 24-06-2014 08:35:00 14.4 C 9.89 g/m*3 14.4 C 4.8 km/h
393 24-06-2014 08:40:00 14.8 C 9.88 g/m*3 14.8 C 3.2 km/h
394 24-06-2014 08:45:00 15.1 C 9.93 g/m*3 15.1 C 1.6 km/h
395 24-06-2014 08:50:00 15.4 C 9.99 g/m*3 15.4 C 0 km/h
396 24-06-2014 08:55:00 15.8 C 10.23 g/m*3 15.8 C 1.6 km/h
397 24-06-2014 09:00:00 16.1 C 10.42 g/m*3 16.1 C 0 km/h
398 24-06-2014 09:05:00 16.3 C 10.54 g/m*3 16.3 C 0 km/h
399 24-06-2014 09:10:00 16.6 C 10.59 g/m*3 16.6 C 0 km/h
400 24-06-2014 09:15:00 16.7 C 10.37 g/m*3 16.7 C 0 km/h
Sensor: Nr:Datum:Temp:Abs-Feuchte:Windchill:Wind:
Aussen-T/F 401 24-06-2014 09:20:00 16.6 C 10.45 g/m*3 16.6 C 0 km/h
402 24-06-2014 09:25:00 16.4 C 10.47 g/m*3 16.4 C 0 km/h
403 24-06-2014 09:30:00 16.3 C 10.54 g/m*3 16.3 C 1.6 km/h
404 24-06-2014 09:35:00 16.6 C 10.59 g/m*3 16.6 C 3.2 km/h
405 24-06-2014 09:40:00 16.9 C 10.5 g/m*3 16.9 C 1.6 km/h
406 24-06-2014 09:45:00 17.3 C 10.75 g/m*3 17.3 C 3.2 km/h
407 24-06-2014 09:50:00 17.6 C 10.8 g/m*3 17.6 C 3.2 km/h
408 24-06-2014 09:55:00 17.9 C 10.69 g/m*3 17.9 C 1.6 km/h
409 24-06-2014 10:00:00 18.2 C 11.04 g/m*3 18.2 C 1.6 km/h
410 24-06-2014 10:05:00 18.6 C 10.66 g/m*3 18.6 C 1.6 km/h
411 24-06-2014 10:10:00 19 C 11.24 g/m*3 19 C 3.2 km/h
412 24-06-2014 10:15:00 19.6 C 10.97 g/m*3 19.6 C 4.8 km/h
413 24-06-2014 10:20:00 19.9 C 10.31 g/m*3 19.9 C 3.2 km/h
414 24-06-2014 10:25:00 20.1 C 10.26 g/m*3 20.1 C 3.2 km/h
415 24-06-2014 10:30:00 20.3 C 10.55 g/m*3 20.3 C 3.2 km/h
416 24-06-2014 10:35:00 20.6 C 10.56 g/m*3 20.6 C 4.8 km/h
417 24-06-2014 10:40:00 20.7 C 10.44 g/m*3 20.7 C 3.2 km/h
418 24-06-2014 10:45:00 20.8 C 10.86 g/m*3 20.8 C 4.8 km/h
419 24-06-2014 10:50:00 20.8 C 10.14 g/m*3 20.8 C 6.4 km/h
420 24-06-2014 10:55:00 20.9 C 10.2 g/m*3 20.9 C 6.4 km/h
421 24-06-2014 11:00:00 21 C 9.89 g/m*3 21 C 6.4 km/h
422 24-06-2014 11:05:00 21 C 9.71 g/m*3 21 C 4.8 km/h
423 24-06-2014 11:10:00 21.1 C 9.95 g/m*3 21.1 C 6.4 km/h
424 24-06-2014 11:15:00 21.3 C 10.07 g/m*3 21.3 C 4.8 km/h
425 24-06-2014 11:20:00 21.4 C 9.75 g/m*3 21.4 C 8.1 km/h
Sensor: Nr:Datum:Temp:Abs-Feuchte:Windchill:Wind:
Aussen-T/F 426 24-06-2014 11:25:00 21.4 C 9.94 g/m*3 21.4 C 6.4 km/h
427 24-06-2014 11:30:00 21.6 C 9.48 g/m*3 21.6 C 4.8 km/h
428 24-06-2014 11:35:00 21.8 C 9.78 g/m*3 21.8 C 4.8 km/h
429 24-06-2014 11:40:00 21.7 C 8.58 g/m*3 21.7 C 4.8 km/h
430 24-06-2014 11:45:00 21.8 C 9.4 g/m*3 21.8 C 3.2 km/h
431 24-06-2014 11:50:00 21.8 C 9.4 g/m*3 21.8 C 4.8 km/h
432 24-06-2014 11:55:00 21.8 C 9.59 g/m*3 21.8 C 1.6 km/h
433 24-06-2014 12:00:00 22.1 C 9.56 g/m*3 22.1 C 4.8 km/h
434 24-06-2014 12:05:00 22.3 C 9.48 g/m*3 22.3 C 8.1 km/h
435 24-06-2014 12:10:00 22.5 C 9.39 g/m*3 22.5 C 8.1 km/h
436 24-06-2014 12:15:00 22.8 C 9.55 g/m*3 22.8 C 9.7 km/h
437 24-06-2014 12:20:00 23 C 9.25 g/m*3 23 C 6.4 km/h
438 24-06-2014 12:25:00 23.1 C 9.3 g/m*3 23.1 C 3.2 km/h
439 24-06-2014 12:30:00 23.2 C 9.15 g/m*3 23.2 C 6.4 km/h
440 24-06-2014 12:35:00 23.4 C 9.67 g/m*3 23.4 C 8.1 km/h
441 24-06-2014 12:40:00 23.3 C 9.2 g/m*3 23.3 C 6.4 km/h
442 24-06-2014 12:45:00 23.6 C 9.57 g/m*3 23.6 C 6.4 km/h
443 24-06-2014 12:50:00 23.9 C 9.74 g/m*3 23.9 C 11.3 km/h
444 24-06-2014 12:55:00 23.7 C 9.2 g/m*3 23.7 C 11.3 km/h
445 24-06-2014 13:00:00 23.4 C 9.46 g/m*3 23.4 C 3.2 km/h
446 24-06-2014 13:05:00 23.4 C 9.25 g/m*3 23.4 C 4.8 km/h
447 24-06-2014 13:10:00 23.4 C 9.46 g/m*3 23.4 C 11.3 km/h
448 24-06-2014 13:15:00 23.4 C 9.04 g/m*3 23.4 C 6.4 km/h
449 24-06-2014 13:20:00 23.3 C 8.99 g/m*3 23.3 C 6.4 km/h
450 24-06-2014 13:25:00 23.2 C 8.73 g/m*3 23.2 C 3.2 km/h
Sensor: Nr:Datum:Temp:Abs-Feuchte:Windchill:Wind:
Aussen-T/F 451 24-06-2014 13:30:00 23.3 C 9.62 g/m*3 23.3 C 6.4 km/h
452 24-06-2014 13:35:00 23.3 C 9.2 g/m*3 23.3 C 6.4 km/h
453 24-06-2014 13:40:00 23.1 C 8.89 g/m*3 23.1 C 1.6 km/h
454 24-06-2014 13:45:00 22.9 C 8.99 g/m*3 22.9 C 9.7 km/h
455 24-06-2014 13:50:00 22.7 C 8.89 g/m*3 22.7 C 6.4 km/h
456 24-06-2014 13:55:00 22.6 C 9.04 g/m*3 22.6 C 6.4 km/h
457 24-06-2014 14:00:00 22.6 C 8.84 g/m*3 22.6 C 6.4 km/h
458 24-06-2014 14:05:00 22.8 C 9.14 g/m*3 22.8 C 8.1 km/h
459 24-06-2014 14:10:00 22.9 C 9.4 g/m*3 22.9 C 4.8 km/h
460 24-06-2014 14:15:00 23.1 C 9.3 g/m*3 23.1 C 4.8 km/h
461 24-06-2014 14:20:00 23.1 C 8.89 g/m*3 23.1 C 3.2 km/h
462 24-06-2014 14:25:00 23 C 9.04 g/m*3 23 C 8.1 km/h
463 24-06-2014 14:30:00 23.1 C 9.3 g/m*3 23.1 C 1.6 km/h
464 24-06-2014 14:35:00 23.2 C 9.36 g/m*3 23.2 C 4.8 km/h
465 24-06-2014 14:40:00 23.4 C 9.46 g/m*3 23.4 C 8.1 km/h
466 24-06-2014 14:45:00 23.3 C 8.99 g/m*3 23.3 C 8.1 km/h
467 24-06-2014 14:50:00 23.3 C 9.62 g/m*3 23.3 C 6.4 km/h
468 24-06-2014 14:55:00 23.3 C 9.2 g/m*3 23.3 C 4.8 km/h
469 24-06-2014 15:00:00 23.4 C 9.25 g/m*3 23.4 C 8.1 km/h
470 24-06-2014 15:05:00 23.4 C 9.04 g/m*3 23.4 C 6.4 km/h
471 24-06-2014 15:10:00 23.2 C 9.15 g/m*3 23.2 C 3.2 km/h
472 24-06-2014 15:15:00 23.1 C 9.3 g/m*3 23.1 C 3.2 km/h
473 24-06-2014 15:20:00 23.3 C 10.04 g/m*3 23.3 C 3.2 km/h
474 24-06-2014 15:25:00 23.8 C 9.68 g/m*3 23.8 C 3.2 km/h
475 24-06-2014 15:30:00 24 C 9.57 g/m*3 24 C 6.4 km/h
Sensor: Nr:Datum:Temp:Abs-Feuchte:Windchill:Wind:
Aussen-T/F 476 24-06-2014 15:35:00 24 C 9.57 g/m*3 24 C 9.7 km/h
477 24-06-2014 15:40:00 24.2 C 9.68 g/m*3 24.2 C 8.1 km/h
478 24-06-2014 15:45:00 24.3 C 9.96 g/m*3 24.3 C 6.4 km/h
479 24-06-2014 15:50:00 24.5 C 9.4 g/m*3 24.5 C 3.2 km/h
480 24-06-2014 15:55:00 24.4 C 9.12 g/m*3 24.4 C 6.4 km/h
481 24-06-2014 16:00:00 23.9 C 9.74 g/m*3 23.9 C 1.6 km/h
482 24-06-2014 16:05:00 23.6 C 9.36 g/m*3 23.6 C 0 km/h
483 24-06-2014 16:10:00 23.4 C 10.93 g/m*3 23.4 C 0 km/h
484 24-06-2014 16:15:00 23 C 10.28 g/m*3 23 C 0 km/h
485 24-06-2014 16:20:00 22.7 C 10.71 g/m*3 22.7 C 0 km/h
486 24-06-2014 16:25:00 22.6 C 9.04 g/m*3 22.6 C 3.2 km/h
487 24-06-2014 16:30:00 22.6 C 9.04 g/m*3 22.6 C 3.2 km/h
488 24-06-2014 16:35:00 22.7 C 9.09 g/m*3 22.7 C 6.4 km/h
489 24-06-2014 16:40:00 22.8 C 9.35 g/m*3 22.8 C 4.8 km/h
490 24-06-2014 16:45:00 22.8 C 9.14 g/m*3 22.8 C 9.7 km/h
491 24-06-2014 16:50:00 22.7 C 9.09 g/m*3 22.7 C 9.7 km/h
492 24-06-2014 16:55:00 22.4 C 10.13 g/m*3 22.4 C 29 km/h
493 24-06-2014 17:00:00 20.9 C 12.2 g/m*3 20.9 C 29 km/h
494 24-06-2014 17:05:00 20.8 C 12.31 g/m*3 20.8 C 14.5 km/h
495 24-06-2014 17:10:00 18.7 C 12.01 g/m*3 18.7 C 8.1 km/h
496 24-06-2014 17:15:00 17.9 C 12.37 g/m*3 17.9 C 4.8 km/h
497 24-06-2014 17:20:00 17.4 C 12.6 g/m*3 17.4 C 3.2 km/h
498 24-06-2014 17:25:00 17.2 C 12.74 g/m*3 17.2 C 1.6 km/h
499 24-06-2014 17:30:00 17.1 C 12.81 g/m*3 17.1 C 1.6 km/h
500 24-06-2014 17:35:00 17 C 12.88 g/m*3 17 C 0 km/h
Sensor: Nr:Datum:Temp:Abs-Feuchte:Windchill:Wind:
Aussen-T/F 501 24-06-2014 17:40:00 17 C 13.17 g/m*3 17 C 0 km/h
502 24-06-2014 17:45:00 16.9 C 12.94 g/m*3 16.9 C 0 km/h
503 24-06-2014 17:50:00 16.8 C 12.87 g/m*3 16.8 C 1.6 km/h
504 24-06-2014 17:55:00 16.9 C 12.66 g/m*3 16.9 C 12.9 km/h
505 24-06-2014 18:00:00 17.3 C 12.08 g/m*3 17.3 C 11.3 km/h
506 24-06-2014 18:05:00 17.4 C 12.3 g/m*3 17.4 C 4.8 km/h
507 24-06-2014 18:10:00 17.2 C 12.15 g/m*3 17.2 C 3.2 km/h
508 24-06-2014 18:15:00 16.8 C 12.44 g/m*3 16.8 C 3.2 km/h
509 24-06-2014 18:20:00 16.6 C 12.43 g/m*3 16.6 C 0 km/h
510 24-06-2014 18:25:00 16.3 C 12.35 g/m*3 16.3 C 0 km/h
511 24-06-2014 18:30:00 16 C 12.26 g/m*3 16 C 0 km/h
512 24-06-2014 18:35:00 16 C 12.26 g/m*3 16 C 0 km/h
513 24-06-2014 19:00:00 15.2 C 12.2 g/m*3 15.2 C 1.6 km/h
514 24-06-2014 19:05:00 15.2 C 12.2 g/m*3 15.2 C 1.6 km/h
515 24-06-2014 22:20:00 13.5 C 11.7 g/m*3 13.5 C 0 km/h
516 24-06-2014 22:25:00 13.5 C 11.7 g/m*3 13.5 C 1.6 km/h
517 24-06-2014 22:30:00 13.5 C 11.7 g/m*3 13.5 C 0 km/h
518 24-06-2014 22:35:00 13.5 C 11.7 g/m*3 13.5 C 0 km/h
519 24-06-2014 22:40:00 13.5 C 11.7 g/m*3 13.5 C 0 km/h
520 25-06-2014 08:20:00 14.1 C 12.14 g/m*3 14.1 C 9.7 km/h
521 25-06-2014 08:25:00 14.2 C 12.21 g/m*3 14.2 C 9.7 km/h
522 25-06-2014 08:30:00 14.3 C 12.29 g/m*3 14.3 C 11.3 km/h
523 25-06-2014 08:35:00 14.3 C 12.29 g/m*3 14.3 C 14.5 km/h
524 25-06-2014 08:40:00 14.2 C 9.65 g/m*3 14.2 C 12.9 km/h
525 25-06-2014 08:45:00 14.2 C 9.52 g/m*3 14.2 C 17.7 km/h
Sensor: Nr:Datum:Temp:Abs-Feuchte:Windchill:Wind:
Aussen-T/F 526 25-06-2014 08:50:00 14.2 C 9.52 g/m*3 14.2 C 11.3 km/h
527 25-06-2014 08:55:00 14.1 C 9.59 g/m*3 14.1 C 8.1 km/h
528 25-06-2014 09:00:00 13.9 C 9.35 g/m*3 13.9 C 12.9 km/h
529 25-06-2014 09:05:00 13.8 C 9.65 g/m*3 13.8 C 4.8 km/h
530 25-06-2014 09:10:00 14.1 C 9.71 g/m*3 14.1 C 6.4 km/h
531 25-06-2014 09:15:00 14.5 C 9.58 g/m*3 14.5 C 16.1 km/h
532 25-06-2014 09:20:00 14.7 C 9.32 g/m*3 14.7 C 17.7 km/h
533 25-06-2014 09:25:00 14.8 C 9.37 g/m*3 14.8 C 14.5 km/h
534 25-06-2014 09:30:00 14.9 C 9.3 g/m*3 14.9 C 17.7 km/h
535 25-06-2014 09:35:00 15 C 9.1 g/m*3 15 C 12.9 km/h
536 25-06-2014 09:40:00 15.1 C 9.16 g/m*3 15.1 C 9.7 km/h
537 25-06-2014 09:45:00 15.2 C 9.35 g/m*3 15.2 C 9.7 km/h
538 25-06-2014 09:50:00 15.4 C 9.07 g/m*3 15.4 C 16.1 km/h
539 25-06-2014 09:55:00 15.6 C 8.91 g/m*3 15.6 C 11.3 km/h
540 25-06-2014 10:00:00 15.6 C 8.91 g/m*3 15.6 C 14.5 km/h
541 25-06-2014 10:05:00 15.3 C 8.75 g/m*3 15.3 C 14.5 km/h
542 25-06-2014 10:10:00 15.2 C 8.7 g/m*3 15.2 C 12.9 km/h
543 25-06-2014 10:15:00 15.2 C 8.7 g/m*3 15.2 C 19.3 km/h
544 25-06-2014 10:20:00 15.2 C 8.44 g/m*3 15.2 C 17.7 km/h
545 25-06-2014 10:25:00 15.3 C 8.62 g/m*3 15.3 C 9.7 km/h
546 25-06-2014 10:30:00 15.7 C 8.7 g/m*3 15.7 C 14.5 km/h
547 25-06-2014 10:35:00 15.8 C 8.48 g/m*3 15.8 C 16.1 km/h
548 25-06-2014 10:40:00 15.7 C 8.56 g/m*3 15.7 C 9.7 km/h
549 25-06-2014 10:45:00 16 C 8.45 g/m*3 16 C 16.1 km/h
550 25-06-2014 10:50:00 16.1 C 8.09 g/m*3 16.1 C 19.3 km/h
Sensor: Nr:Datum:Temp:Abs-Feuchte:Windchill:Wind:
Aussen-T/F 551 25-06-2014 10:55:00 16.3 C 7.63 g/m*3 16.3 C 11.3 km/h
552 25-06-2014 11:00:00 16.8 C 8.01 g/m*3 16.8 C 12.9 km/h
553 25-06-2014 11:05:00 17.3 C 8.84 g/m*3 17.3 C 16.1 km/h
554 25-06-2014 11:10:00 17.3 C 8.1 g/m*3 17.3 C 14.5 km/h
555 25-06-2014 11:15:00 16.8 C 8.01 g/m*3 16.8 C 12.9 km/h
556 25-06-2014 11:20:00 16.4 C 7.82 g/m*3 16.4 C 20.9 km/h
557 25-06-2014 11:25:00 16.1 C 8.22 g/m*3 16.1 C 12.9 km/h
558 25-06-2014 11:30:00 16.3 C 7.91 g/m*3 16.3 C 12.9 km/h
559 25-06-2014 11:35:00 16.9 C 8.49 g/m*3 16.9 C 11.3 km/h
560 25-06-2014 11:40:00 17.4 C 8.45 g/m*3 17.4 C 16.1 km/h
561 25-06-2014 11:45:00 17.7 C 8.15 g/m*3 17.7 C 11.3 km/h
562 25-06-2014 11:50:00 17.7 C 8.15 g/m*3 17.7 C 12.9 km/h
563 25-06-2014 11:55:00 17.9 C 8.24 g/m*3 17.9 C 12.9 km/h
564 25-06-2014 12:00:00 18.1 C 8.19 g/m*3 18.1 C 11.3 km/h
565 25-06-2014 12:05:00 17.9 C 7.63 g/m*3 17.9 C 17.7 km/h
566 25-06-2014 12:10:00 17.6 C 7.65 g/m*3 17.6 C 16.1 km/h
567 25-06-2014 12:15:00 17.8 C 7.59 g/m*3 17.8 C 12.9 km/h
568 25-06-2014 12:20:00 18.2 C 7.77 g/m*3 18.2 C 16.1 km/h
569 25-06-2014 12:25:00 18.4 C 7.71 g/m*3 18.4 C 16.1 km/h
570 25-06-2014 12:30:00 18.3 C 7.97 g/m*3 18.3 C 17.7 km/h
571 25-06-2014 12:35:00 17.7 C 7.69 g/m*3 17.7 C 16.1 km/h
572 25-06-2014 12:40:00 17.4 C 7.71 g/m*3 17.4 C 14.5 km/h
573 25-06-2014 12:45:00 17.3 C 7.81 g/m*3 17.3 C 14.5 km/h
574 25-06-2014 12:50:00 17.3 C 7.96 g/m*3 17.3 C 12.9 km/h
575 25-06-2014 12:55:00 17.4 C 7.56 g/m*3 17.4 C 12.9 km/h
Sensor: Nr:Datum:Temp:Abs-Feuchte:Windchill:Wind:
Aussen-T/F 576 25-06-2014 13:00:00 17.4 C 7.85 g/m*3 17.4 C 9.7 km/h
577 25-06-2014 13:05:00 17.7 C 8 g/m*3 17.7 C 8.1 km/h
578 25-06-2014 13:10:00 18.1 C 8.03 g/m*3 18.1 C 14.5 km/h
579 25-06-2014 13:15:00 18.1 C 7.88 g/m*3 18.1 C 11.3 km/h
580 25-06-2014 13:20:00 18 C 7.83 g/m*3 18 C 12.9 km/h
581 25-06-2014 13:25:00 17.9 C 7.79 g/m*3 17.9 C 11.3 km/h
582 25-06-2014 13:30:00 17.8 C 7.89 g/m*3 17.8 C 9.7 km/h
583 25-06-2014 13:35:00 17.9 C 7.63 g/m*3 17.9 C 12.9 km/h
584 25-06-2014 13:40:00 17.8 C 7.74 g/m*3 17.8 C 11.3 km/h
585 25-06-2014 13:45:00 17.6 C 7.5 g/m*3 17.6 C 6.4 km/h
586 25-06-2014 13:50:00 17.9 C 8.24 g/m*3 17.9 C 11.3 km/h
587 25-06-2014 13:55:00 18.2 C 7.93 g/m*3 18.2 C 6.4 km/h
588 25-06-2014 14:00:00 18.3 C 7.51 g/m*3 18.3 C 12.9 km/h
589 25-06-2014 14:05:00 18.3 C 7.82 g/m*3 18.3 C 9.7 km/h
590 25-06-2014 14:10:00 18.2 C 7.77 g/m*3 18.2 C 17.7 km/h
591 25-06-2014 14:15:00 17.8 C 7.89 g/m*3 17.8 C 11.3 km/h
592 25-06-2014 14:20:00 17.9 C 8.24 g/m*3 17.9 C 12.9 km/h
593 25-06-2014 14:25:00 18.7 C 7.68 g/m*3 18.7 C 16.1 km/h
594 25-06-2014 14:30:00 18.8 C 7.89 g/m*3 18.8 C 17.7 km/h
595 25-06-2014 14:35:00 18.9 C 8.1 g/m*3 18.9 C 14.5 km/h
596 25-06-2014 14:40:00 18.9 C 7.78 g/m*3 18.9 C 12.9 km/h
597 25-06-2014 14:45:00 18.9 C 7.78 g/m*3 18.9 C 9.7 km/h
598 25-06-2014 14:50:00 18.7 C 7.68 g/m*3 18.7 C 9.7 km/h
599 25-06-2014 14:55:00 18.4 C 7.86 g/m*3 18.4 C 11.3 km/h
600 25-06-2014 15:00:00 18.2 C 7.62 g/m*3 18.2 C 9.7 km/h
Sensor: Nr:Datum:Temp:Abs-Feuchte:Windchill:Wind:
Aussen-T/F 601 25-06-2014 15:05:00 17.9 C 7.63 g/m*3 17.9 C 9.7 km/h
602 25-06-2014 15:10:00 17.8 C 7.74 g/m*3 17.8 C 9.7 km/h
603 25-06-2014 15:15:00 17.8 C 7.74 g/m*3 17.8 C 9.7 km/h
604 25-06-2014 15:20:00 17.9 C 7.94 g/m*3 17.9 C 9.7 km/h
605 25-06-2014 15:25:00 18.2 C 7.93 g/m*3 18.2 C 11.3 km/h
606 25-06-2014 15:30:00 18.6 C 7.96 g/m*3 18.6 C 8.1 km/h
607 25-06-2014 15:35:00 18.8 C 8.05 g/m*3 18.8 C 14.5 km/h
608 25-06-2014 15:40:00 19.3 C 7.96 g/m*3 19.3 C 19.3 km/h
609 25-06-2014 15:45:00 19.1 C 7.7 g/m*3 19.1 C 16.1 km/h
610 25-06-2014 15:50:00 18.8 C 7.57 g/m*3 18.8 C 9.7 km/h
611 25-06-2014 15:55:00 18.6 C 7.48 g/m*3 18.6 C 9.7 km/h
612 25-06-2014 16:00:00 18.7 C 7.84 g/m*3 18.7 C 11.3 km/h
613 25-06-2014 16:05:00 19.3 C 7.46 g/m*3 19.3 C 8.1 km/h
614 25-06-2014 16:10:00 20.1 C 7.82 g/m*3 20.1 C 12.9 km/h
615 25-06-2014 16:15:00 20.5 C 7.47 g/m*3 20.5 C 6.4 km/h
616 25-06-2014 16:20:00 20.1 C 7.13 g/m*3 20.1 C 11.3 km/h
617 25-06-2014 16:25:00 19.8 C 7.34 g/m*3 19.8 C 6.4 km/h
618 25-06-2014 16:30:00 19.5 C 7.38 g/m*3 19.5 C 9.7 km/h
619 25-06-2014 16:35:00 19.3 C 7.46 g/m*3 19.3 C 11.3 km/h
620 25-06-2014 16:40:00 19.8 C 7.52 g/m*3 19.8 C 8.1 km/h
621 25-06-2014 16:45:00 20.2 C 7.34 g/m*3 20.2 C 11.3 km/h
622 25-06-2014 16:50:00 20 C 7.09 g/m*3 20 C 8.1 km/h
623 25-06-2014 16:55:00 19.6 C 7.26 g/m*3 19.6 C 9.7 km/h
624 25-06-2014 17:00:00 19.2 C 7.42 g/m*3 19.2 C 11.3 km/h
625 25-06-2014 17:05:00 18.9 C 7.13 g/m*3 18.9 C 12.9 km/h
Sensor: Nr:Datum:Temp:Abs-Feuchte:Windchill:Wind:
Aussen-T/F 626 25-06-2014 17:10:00 19.1 C 7.54 g/m*3 19.1 C 9.7 km/h
627 25-06-2014 17:15:00 19.7 C 7.3 g/m*3 19.7 C 11.3 km/h
628 25-06-2014 17:20:00 20.1 C 7.3 g/m*3 20.1 C 12.9 km/h
629 25-06-2014 17:25:00 19.8 C 7.34 g/m*3 19.8 C 11.3 km/h
630 25-06-2014 17:30:00 19.7 C 7.81 g/m*3 19.7 C 9.7 km/h
631 25-06-2014 17:35:00 20.3 C 7.56 g/m*3 20.3 C 14.5 km/h
632 25-06-2014 17:40:00 20.2 C 7.34 g/m*3 20.2 C 8.1 km/h
633 25-06-2014 17:45:00 19.7 C 7.47 g/m*3 19.7 C 11.3 km/h
634 25-06-2014 17:50:00 19.5 C 7.89 g/m*3 19.5 C 6.4 km/h
635 25-06-2014 17:55:00 19.8 C 7.34 g/m*3 19.8 C 4.8 km/h
636 25-06-2014 18:00:00 20.1 C 7.3 g/m*3 20.1 C 4.8 km/h
637 25-06-2014 18:05:00 20.2 C 7.69 g/m*3 20.2 C 6.4 km/h
638 25-06-2014 18:10:00 20.6 C 7.52 g/m*3 20.6 C 9.7 km/h
639 25-06-2014 18:15:00 20.7 C 7.92 g/m*3 20.7 C 12.9 km/h
640 25-06-2014 18:20:00 20.9 C 7.65 g/m*3 20.9 C 8.1 km/h
641 25-06-2014 18:25:00 20.8 C 7.79 g/m*3 20.8 C 8.1 km/h
642 25-06-2014 18:30:00 21.1 C 7.19 g/m*3 21.1 C 11.3 km/h
643 25-06-2014 18:35:00 20.9 C 7.47 g/m*3 20.9 C 9.7 km/h
644 25-06-2014 18:40:00 20.7 C 7.56 g/m*3 20.7 C 11.3 km/h
645 25-06-2014 18:45:00 20.8 C 7.6 g/m*3 20.8 C 9.7 km/h
646 25-06-2014 18:50:00 21.1 C 7.37 g/m*3 21.1 C 11.3 km/h
647 25-06-2014 18:55:00 21.1 C 7.92 g/m*3 21.1 C 12.9 km/h
648 25-06-2014 19:00:00 21 C 7.69 g/m*3 21 C 11.3 km/h
649 25-06-2014 19:05:00 20.8 C 7.42 g/m*3 20.8 C 9.7 km/h
650 25-06-2014 19:10:00 20.4 C 7.43 g/m*3 20.4 C 11.3 km/h
Sensor: Nr:Datum:Temp:Abs-Feuchte:Windchill:Wind:
Aussen-T/F 651 25-06-2014 19:15:00 20.1 C 7.65 g/m*3 20.1 C 9.7 km/h
652 25-06-2014 19:20:00 20 C 7.6 g/m*3 20 C 9.7 km/h
653 25-06-2014 19:25:00 19.7 C 7.64 g/m*3 19.7 C 9.7 km/h
654 25-06-2014 19:30:00 19.4 C 7.51 g/m*3 19.4 C 11.3 km/h
655 25-06-2014 19:35:00 19.1 C 7.54 g/m*3 19.1 C 9.7 km/h
656 25-06-2014 19:40:00 19.1 C 7.54 g/m*3 19.1 C 9.7 km/h
657 25-06-2014 19:45:00 19.2 C 7.59 g/m*3 19.2 C 9.7 km/h
658 25-06-2014 19:50:00 19.3 C 7.63 g/m*3 19.3 C 8.1 km/h
659 25-06-2014 19:55:00 19.3 C 7.63 g/m*3 19.3 C 9.7 km/h
660 25-06-2014 20:00:00 19.3 C 7.8 g/m*3 19.3 C 11.3 km/h
661 25-06-2014 20:05:00 19.2 C 7.91 g/m*3 19.2 C 9.7 km/h
662 25-06-2014 20:10:00 19 C 7.66 g/m*3 19 C 11.3 km/h
663 25-06-2014 20:15:00 18.8 C 7.89 g/m*3 18.8 C 9.7 km/h
664 25-06-2014 20:20:00 18.8 C 7.73 g/m*3 18.8 C 6.4 km/h
665 25-06-2014 20:25:00 18.9 C 7.94 g/m*3 18.9 C 9.7 km/h
666 25-06-2014 20:30:00 18.8 C 7.89 g/m*3 18.8 C 8.1 km/h
667 25-06-2014 20:35:00 18.7 C 8.01 g/m*3 18.7 C 8.1 km/h
668 25-06-2014 20:40:00 18.6 C 7.96 g/m*3 18.6 C 11.3 km/h
669 25-06-2014 20:45:00 18.4 C 7.86 g/m*3 18.4 C 8.1 km/h
670 25-06-2014 20:50:00 18.3 C 7.97 g/m*3 18.3 C 14.5 km/h
671 25-06-2014 20:55:00 18.1 C 7.88 g/m*3 18.1 C 8.1 km/h
672 25-06-2014 21:00:00 17.8 C 7.89 g/m*3 17.8 C 8.1 km/h
673 25-06-2014 21:05:00 17.7 C 8 g/m*3 17.7 C 8.1 km/h
674 25-06-2014 21:10:00 17.6 C 8.1 g/m*3 17.6 C 3.2 km/h
675 25-06-2014 21:15:00 17.5 C 8.05 g/m*3 17.5 C 3.2 km/h
Sensor: Nr:Datum:Temp:Abs-Feuchte:Windchill:Wind:
Aussen-T/F 676 25-06-2014 21:20:00 17.3 C 8.1 g/m*3 17.3 C 4.8 km/h
677 25-06-2014 21:25:00 17 C 8.39 g/m*3 17 C 0 km/h
678 25-06-2014 21:30:00 16.5 C 8.43 g/m*3 16.5 C 0 km/h
679 25-06-2014 21:35:00 15.9 C 8.26 g/m*3 15.9 C 0 km/h
680 25-06-2014 21:40:00 15.5 C 8.33 g/m*3 15.5 C 0 km/h
681 25-06-2014 21:45:00 15.2 C 8.31 g/m*3 15.2 C 0 km/h
682 25-06-2014 21:50:00 14.9 C 8.41 g/m*3 14.9 C 0 km/h
683 25-06-2014 21:55:00 14.7 C 8.44 g/m*3 14.7 C 0 km/h
684 25-06-2014 22:00:00 14.5 C 8.46 g/m*3 14.5 C 0 km/h
685 25-06-2014 22:05:00 14.3 C 8.48 g/m*3 14.3 C 0 km/h
686 25-06-2014 22:10:00 14.2 C 8.67 g/m*3 14.2 C 0 km/h
687 25-06-2014 22:15:00 14 C 8.56 g/m*3 14 C 0 km/h
688 25-06-2014 22:20:00 13.8 C 8.58 g/m*3 13.8 C 0 km/h
689 25-06-2014 22:25:00 13.7 C 8.53 g/m*3 13.7 C 0 km/h
690 25-06-2014 22:30:00 13.6 C 8.47 g/m*3 13.6 C 0 km/h
691 25-06-2014 22:35:00 13.5 C 8.54 g/m*3 13.5 C 0 km/h
692 25-06-2014 22:40:00 13.4 C 8.49 g/m*3 13.4 C 0 km/h
693 25-06-2014 22:45:00 13.3 C 8.43 g/m*3 13.3 C 0 km/h
694 25-06-2014 22:50:00 13.2 C 8.5 g/m*3 13.2 C 0 km/h
695 25-06-2014 22:55:00 13.2 C 8.5 g/m*3 13.2 C 0 km/h
696 25-06-2014 23:00:00 13.1 C 8.44 g/m*3 13.1 C 0 km/h
697 25-06-2014 23:05:00 13.1 C 8.44 g/m*3 13.1 C 0 km/h
698 25-06-2014 23:10:00 13 C 8.39 g/m*3 13 C 0 km/h
699 25-06-2014 23:15:00 12.9 C 8.45 g/m*3 12.9 C 0 km/h
700 25-06-2014 23:20:00 12.9 C 8.45 g/m*3 12.9 C 0 km/h
Sensor: Nr:Datum:Temp:Abs-Feuchte:Windchill:Wind:
Aussen-T/F 701 25-06-2014 23:25:00 12.7 C 8.35 g/m*3 12.7 C 0 km/h
702 25-06-2014 23:30:00 12.7 C 8.46 g/m*3 12.7 C 0 km/h
703 25-06-2014 23:35:00 12.5 C 8.47 g/m*3 12.5 C 0 km/h
704 25-06-2014 23:40:00 12.3 C 8.47 g/m*3 12.3 C 0 km/h
705 25-06-2014 23:45:00 12.1 C 8.47 g/m*3 12.1 C 0 km/h
706 25-06-2014 23:50:00 11.9 C 8.37 g/m*3 11.9 C 0 km/h
707 25-06-2014 23:55:00 11.8 C 8.31 g/m*3 11.8 C 0 km/h

Legende:
   Min
   Max


Maximal/Minimal-Werte vom 23.06.2014 - 25.06.2014

Sensor Min Max Avg
Temp
(Aussen-T/F)
9.8 °C
23-06-2014  05:00:00
24.7 °C
23-06-2014  16:45:00
17.02 °C
Abs-Feuchte
(Aussen-T/F)
7.09 g/m*3
25-06-2014  16:50:00
13.17 g/m*3
24-06-2014  17:40:00
9.03 g/m*3
Windchill
(Aussen-T/F)
9.8 C
23-06-2014  05:00:00
24.7 C
23-06-2014  16:45:00
17 C

Die Daten stammen von einer Davis Vantage Pro 2 Wetter-Station und werden unter Linux mit der Software wview2wettercgi und aufbereitet. Alle Angaben erfolgen ohne Gewähr für ihre Vollständigkeit oder Richtigkeit.
Kontakt: Rainer Krienke krienke@uni-koblenz.de . Meine Webseiten an der Uni Koblenz oder privat.
Version: $Revision: 0.78 $